OSIRIS-3U

Last updated on Fri Mar 08 2019 00:02:08 GMT+0000 (Coordinated Universal Time)

1 43027U 98067NL 19066.21822070 .27976699 12582-4 67924-3 0 9998 2 43027 51.6122 93.2605 0000010 179.6888 180.8884 16.46418237 73939

Satellite not in orbit